Creston, IA

10:47 PM CDT on March 28, 2017 (GMT -0500)
Creston Municipal

Weather History for KCSQ - March, 2014

Change the Weather History Date:

Thursday, March 27, 2014

  Actual Average Record
Temperature  
Mean Temperature 44 °F -  
Max Temperature 55 °F 57 °F 80 °F (1991)
Min Temperature 33 °F 33 °F 10 °F (1955)
Degree Days  
Heating Degree Days 21    
Moisture  
Dew Point 42 °F    
Average Humidity 97    
Maximum Humidity 100    
Minimum Humidity 88    
Precipitation  
Precipitation 0.05 in - - ()
Sea Level Pressure  
Sea Level Pressure 29.49 in    
Wind  
Wind Speed 20 mph (South)    
Max Wind Speed 36 mph    
Max Gust Speed 43 mph    
Visibility 4 miles    
Events Rain    
Averages and records for this station are not official NWS values.
T = Trace of Precipitation, MM = Missing Value Source: NWS Daily Summary

Daily Weather History Graph

Daily Weather History Graph

Search for Another Location

Airport or City:

Trip Planner

Search our weather history database for the weather conditions in past years. The results will help you decide how hot, cold, wet, or windy it might be!

Date:

Astronomy

Mar. 27, 2014 Rise Set
Actual Time 7:09 AM CDT 7:37 PM CDT
Civil Twilight 6:41 AM CDT 8:04 PM CDT
Nautical Twilight 6:09 AM CDT 8:37 PM CDT
Astronomical Twilight 5:35 AM CDT 9:10 PM CDT
Moon 5:02 AM CDT (3/27) 4:24 PM CDT (3/27)
Length of Visible Light 13h 23m
Length of Day
12h 28m
Waning Crescent, 13% of the Moon is Illuminated
Mar 27
Waning Crescent
Mar 30
New
Apr 7
First Quarter
Apr 15
Full
Apr 22
Last Quarter

Hourly Weather History & Observations

Time (CDT) Temp. Windchill Dew Point Humidity Pressure Visibility Wind Dir Wind Speed Gust Speed Precip Events Conditions
12:15 AM 41.0 °F 30.5 °F 39.2 °F 93% 29.68 in 3.0 mi South 26.5 mph - N/A   Overcast
12:35 AM 41.0 °F 31.6 °F 39.2 °F 93% 29.68 in - South 20.7 mph 28.8 mph N/A   Overcast
12:55 AM 41.0 °F 31.1 °F 39.2 °F 93% 29.67 in 3.0 mi South 23.0 mph 31.1 mph N/A   Overcast
1:15 AM 41.0 °F 31.6 °F 39.2 °F 93% 29.65 in 4.0 mi South 20.7 mph 27.6 mph N/A   Overcast
1:35 AM 41.0 °F 31.6 °F 39.2 °F 93% 29.64 in 5.0 mi South 20.7 mph 29.9 mph N/A   Overcast
1:55 AM 41.0 °F 32.2 °F 39.2 °F 93% 29.63 in 5.0 mi South 18.4 mph 27.6 mph N/A   Overcast
2:15 AM 41.0 °F 31.4 °F 39.2 °F 93% 29.62 in 4.0 mi South 21.9 mph - N/A   Overcast
2:35 AM 41.0 °F 31.4 °F 39.2 °F 93% 29.60 in 4.0 mi South 21.9 mph - N/A   Overcast
2:55 AM 41.0 °F 31.9 °F 41.0 °F 100% 29.59 in 3.0 mi South 19.6 mph 26.5 mph N/A   Overcast
3:15 AM 41.0 °F 32.2 °F 41.0 °F 100% 29.58 in 3.0 mi South 18.4 mph - N/A   Overcast
3:35 AM 41.0 °F 33.5 °F 41.0 °F 100% 29.57 in 2.5 mi South 13.8 mph 26.5 mph N/A   Overcast
3:55 AM 41.0 °F 32.5 °F 41.0 °F 100% 29.56 in 3.0 mi South 17.3 mph - N/A   Overcast
4:15 AM 41.0 °F 32.8 °F 41.0 °F 100% 29.55 in 2.0 mi South 16.1 mph 23.0 mph N/A   Overcast
4:35 AM 41.0 °F 32.8 °F 41.0 °F 100% 29.53 in 2.0 mi South 16.1 mph - N/A   Overcast
4:55 AM 41.0 °F 33.1 °F 41.0 °F 100% 29.53 in 1.8 mi South 15.0 mph 23.0 mph N/A   Overcast
5:15 AM 41.0 °F 33.1 °F 41.0 °F 100% 29.52 in 1.5 mi South 15.0 mph 20.7 mph N/A   Overcast
5:35 AM 41.0 °F 33.5 °F 41.0 °F 100% 29.51 in 1.8 mi SSE 13.8 mph 20.7 mph N/A   Overcast
5:55 AM 41.0 °F 32.8 °F 41.0 °F 100% 29.51 in 2.0 mi SSE 16.1 mph 24.2 mph N/A   Overcast
6:15 AM 41.0 °F 33.1 °F 41.0 °F 100% 29.50 in 2.0 mi SSE 15.0 mph 20.7 mph N/A   Overcast
6:35 AM 41.0 °F 33.5 °F 41.0 °F 100% 29.50 in 2.0 mi SSE 13.8 mph 20.7 mph N/A   Overcast
6:55 AM 41.0 °F 33.1 °F 41.0 °F 100% 29.50 in 2.0 mi South 15.0 mph - N/A   Overcast
7:15 AM 41.0 °F 33.1 °F 41.0 °F 100% 29.49 in 1.8 mi SSE 15.0 mph - N/A   Overcast
7:35 AM 41.0 °F 33.1 °F 41.0 °F 100% 29.48 in 1.0 mi SSE 15.0 mph 20.7 mph N/A   Overcast
7:55 AM 42.8 °F 35.1 °F 42.8 °F 100% 29.48 in 1.0 mi SSE 16.1 mph 24.2 mph N/A   Overcast
8:15 AM 42.8 °F 35.1 °F 42.8 °F 100% 29.47 in 1.0 mi SSE 16.1 mph 23.0 mph N/A   Overcast
8:35 AM 42.8 °F 34.8 °F 42.8 °F 100% 29.47 in 2.0 mi South 17.3 mph 25.3 mph N/A   Overcast
8:55 AM 44.6 °F 36.9 °F 44.6 °F 100% 29.46 in 2.0 mi South 18.4 mph 26.5 mph 0.01 in   Overcast
9:15 AM 44.6 °F 36.9 °F 44.6 °F 100% 29.45 in 3.0 mi SSE 18.4 mph - N/A   Overcast
9:35 AM 44.6 °F 36.9 °F 44.6 °F 100% 29.44 in 2.5 mi SSE 18.4 mph 25.3 mph N/A   Overcast
9:55 AM 44.6 °F 36.4 °F 44.6 °F 100% 29.43 in 3.0 mi SSE 20.7 mph - N/A   Overcast
10:15 AM 44.6 °F 36.6 °F 44.6 °F 100% 29.43 in 3.0 mi SSE 19.6 mph 25.3 mph N/A   Overcast
10:35 AM 44.6 °F 37.2 °F 44.6 °F 100% 29.42 in 3.0 mi SSE 17.3 mph 24.2 mph N/A   Overcast
10:55 AM 46.4 °F 39.5 °F 46.4 °F 100% 29.42 in 3.0 mi SSE 17.3 mph - N/A   Overcast
11:15 AM 46.4 °F 39.2 °F 46.4 °F 100% 29.40 in 3.0 mi SSE 18.4 mph 26.5 mph N/A   Overcast
11:35 AM 46.4 °F 39.8 °F 46.4 °F 100% 29.40 in 4.0 mi SSE 16.1 mph 23.0 mph N/A   Overcast
11:55 AM 46.4 °F 39.2 °F 46.4 °F 100% 29.38 in 4.0 mi SSE 18.4 mph 25.3 mph N/A   Overcast
12:15 PM 48.2 °F - 48.2 °F 100% 29.37 in 4.0 mi SSE 16.1 mph 24.2 mph N/A   Overcast
12:35 PM 48.2 °F - 48.2 °F 100% 29.37 in 4.0 mi SSE 15.0 mph - N/A   Overcast
12:55 PM 48.2 °F - 48.2 °F 100% 29.36 in 4.0 mi SSE 16.1 mph - N/A   Overcast
1:15 PM 50.0 °F - 50.0 °F 100% 29.36 in 4.0 mi SSE 16.1 mph - N/A   Overcast
1:35 PM 50.0 °F - 50.0 °F 100% 29.34 in 4.0 mi SSE 17.3 mph - N/A   Overcast
1:55 PM 51.8 °F - 51.8 °F 100% 29.32 in 5.0 mi SSE 16.1 mph - N/A   Overcast
2:15 PM 51.8 °F - 51.8 °F 100% 29.32 in 5.0 mi SSE 16.1 mph 24.2 mph N/A   Overcast
2:35 PM 51.8 °F - 51.8 °F 100% 29.30 in 6.0 mi SSE 17.3 mph - N/A   Mostly Cloudy
2:55 PM 51.8 °F - 51.8 °F 100% 29.29 in 3.0 mi SSE 13.8 mph - 0.02 in   Mostly Cloudy
3:15 PM 53.6 °F - 51.8 °F 94% 29.27 in 5.0 mi SSE 13.8 mph 19.6 mph N/A   Mostly Cloudy
3:35 PM 53.6 °F - 53.6 °F 100% 29.27 in 6.0 mi SSE 16.1 mph - N/A   Mostly Cloudy
3:55 PM 53.6 °F - 51.8 °F 94% 29.26 in 4.0 mi SSE 17.3 mph - 0.02 in   Mostly Cloudy
4:15 PM 55.4 °F - 51.8 °F 88% 29.25 in 9.0 mi South 12.7 mph 19.6 mph N/A   Mostly Cloudy
4:35 PM 55.4 °F - 53.6 °F 94% 29.25 in 10.0 mi South 13.8 mph - N/A   Mostly Cloudy
4:55 PM 51.8 °F - 50.0 °F 94% 29.27 in 9.0 mi West 29.9 mph 38.0 mph N/A   Overcast
5:15 PM 44.6 °F 33.9 °F 42.8 °F 93% 29.31 in 8.0 mi WNW 35.7 mph 42.6 mph N/A   Overcast
5:35 PM 41.0 °F 29.8 °F 39.2 °F 93% 29.34 in 3.0 mi West 29.9 mph 39.1 mph N/A Rain Light Rain
5:55 PM 39.2 °F 28.0 °F 37.4 °F 93% 29.37 in 5.0 mi West 26.5 mph 40.3 mph N/A   Overcast
6:15 PM 39.2 °F 28.5 °F 39.2 °F 100% 29.40 in 1.5 mi West 24.2 mph 34.5 mph N/A Rain Light Rain
6:35 PM 39.2 °F 27.8 °F 37.4 °F 93% 29.43 in 1.2 mi West 27.6 mph - N/A Rain Light Rain
7:15 PM 39.2 °F 28.5 °F 39.2 °F 100% 29.48 in 9.0 mi West 24.2 mph 33.4 mph N/A   Overcast
7:55 PM 39.2 °F 28.7 °F 37.4 °F 93% 29.53 in 5.0 mi West 23.0 mph 31.1 mph N/A   Overcast
8:15 PM 37.4 °F 24.6 °F 37.4 °F 100% 29.55 in 2.0 mi WNW 32.2 mph 41.4 mph N/A Rain Light Rain
8:35 PM 35.6 °F 23.0 °F 33.8 °F 93% 29.58 in 9.0 mi NW 27.6 mph 40.3 mph N/A Rain Light Rain
8:55 PM 35.6 °F 21.7 °F 33.8 °F 93% 29.60 in 10.0 mi WNW 34.5 mph 40.3 mph N/A   Overcast
9:15 PM 33.8 °F 20.3 °F 32.0 °F 93% 29.63 in 7.0 mi WNW 28.8 mph 35.7 mph N/A   Overcast
9:35 PM 33.8 °F 21.6 °F 32.0 °F 93% 29.66 in 10.0 mi WNW 23.0 mph 29.9 mph N/A   Overcast
9:55 PM 33.8 °F 21.6 °F 32.0 °F 93% 29.67 in 10.0 mi WNW 23.0 mph 34.5 mph N/A   Overcast
10:15 PM 33.8 °F 21.6 °F 32.0 °F 93% 29.69 in 10.0 mi NW 23.0 mph 31.1 mph N/A   Overcast
10:35 PM 33.8 °F 20.8 °F 32.0 °F 93% 29.69 in 9.0 mi NW 26.5 mph 35.7 mph N/A   Overcast
10:55 PM 33.8 °F 21.0 °F 32.0 °F 93% 29.71 in 10.0 mi NW 25.3 mph 33.4 mph N/A   Overcast
11:15 PM 33.8 °F 21.3 °F 32.0 °F 93% 29.72 in 10.0 mi NW 24.2 mph 35.7 mph N/A   Overcast
11:35 PM 33.8 °F 22.2 °F 32.0 °F 93% 29.74 in 8.0 mi NW 20.7 mph 34.5 mph N/A   Overcast
11:55 PM 33.8 °F 21.0 °F 32.0 °F 93% 29.74 in 8.0 mi NW 25.3 mph 32.2 mph N/A   Overcast